Regional Weather Roundup
Issued by NWS

Home | Current Version | Previous Version | Graphics & Text | Print | Product List | Glossary On
Versions: 1 2 3 4 5 6 7 8 9 10 11 12 13 14 15 16 17 18 19 20 21 22 23 24 25 26 27 28 29 30 31 32 33 34 35 36 37 38 39 40 41 42 43 44 45 46 47 48 49 50
000
ASUS43 KDMX 260107
RWRIA

WEATHER ROUNDUP FOR IOWA
NATIONAL WEATHER SERVICE DES MOINES IA
700 PM CST THU DEC 25 2014

NOTE: "FAIR" INDICATES FEW OR NO CLOUDS BELOW 12,000 FEET WITH NO
SIGNIFICANT WEATHER AND/OR OBSTRUCTIONS TO VISIBILITY.

* - THESE STATIONS ARE NOT NWS STATIONS...THUS NOT UNDER NWS
QUALITY CONTROL.  THEY ALSO DO NOT REPORT WEATHER SUCH
AS PRECIPITATION OR FOG.

IAZ001>003-012>014-020>022-031>034-043>046-260200-
   NORTHWEST IOWA

CITY           SKY/WX    TMP DP  RH WIND       PRES   REMARKS
CARROLL *      PTCLDY    36  32  87 SE8       29.70S WCI  29
CHEROKEE *     CLEAR     30  30 100 N7        29.72R WCI  23
DENISON *      CLEAR     36  34  93 E5        29.67S WCI  32
LE MARS *      PTCLDY    32  30  93 NE8       29.73R WCI  25
ORANGE CITY *  PTCLDY    34  30  86 NE8       29.73R WCI  27
SHELDON *      MOCLDY    32  32 100 NE10      29.74R WCI  24
SIOUX CITY     CLEAR     33  30  88 N9        29.70R WCI  25
SPENCER        MOCLDY    33  29  85 NE10      29.75R WCI  25
STORM LAKE *   CLOUDY    32  30  93 NE6       29.72R WCI  26
$$

IAZ055>058-069>071-079>083-090>094-260200-
   SOUTHWEST IOWA

CITY           SKY/WX    TMP DP  RH WIND       PRES   REMARKS
ATLANTIC *     CLEAR     43  32  65 S6G14     29.69R
AUDUBON *      CLEAR     36  28  75 CALM      29.70S
CLARINDA *     CLEAR     43  32  65 SE3       29.71R
COUNCIL BLFS * CLEAR     41  34  75 SE9       29.66R
CRESTON *      CLEAR     39  32  75 SE9       29.72R WCI  33
HARLAN  *      CLEAR     37  36  93 CALM      29.72R
LAMONI         MOCLDY    43  32  65 S9        29.74R
RED OAK *      CLEAR     41  32  70 S5        29.69R
SHENANDOAH *   CLEAR     45  34  65 S13       29.69R
$$

IAZ047>049-059>061-072>074-084-260200-
   CENTRAL IOWA

CITY           SKY/WX    TMP DP  RH WIND       PRES   REMARKS
AMES           PTCLDY    40  30  67 SE8       29.75R WCI  34
ANKENY *       CLEAR     41  32  70 SE7       29.76R
CHARITON *     CLOUDY    43  32  65 SE10      29.76R
DES MOINES     MOCLDY    44  30  57 SE10      29.76R
GRINNELL*      MOCLDY    37  32  81 E7        29.80R WCI  32
KNOXVILLE *    MOCLDY    45  30  57 SE8       29.77R
MARSHALLTOWN   CLOUDY    39  32  76 SE10      29.78R WCI  32
PELLA *        MOCLDY    43  32  65 SE9       29.80R
PERRY *          N/A     36  32  87 E9        29.73R WCI  29
$$

IAZ004>006-015-016-023>025-035-036-260200-
   NORTH CENTRAL IOWA

CITY           SKY/WX    TMP DP  RH WIND       PRES   REMARKS
ALGONA *       CLEAR     32  32 100 NE7       29.76R WCI  26
CLARION *      CLEAR     37  34  87 SE14      29.75S WCI  29
ESTHERVILLE    MOCLDY    31  30  96 NE7       29.76  WCI  24
FORT DODGE *   PTCLDY    34  28  80 E8        29.73S WCI  27
MASON CITY     MOCLDY    35  32  88 E7        29.78S WCI  29
FOREST CITY *  CLEAR     34  32  93 CALM      29.77S
IOWA FALLS *     N/A     37  32  81 SE7       29.78R WCI  32
$$

IAZ007>011-017>019-026>030-037>042-050>054-066-260200-
   NORTHEAST IOWA

CITY           SKY/WX    TMP DP  RH WIND       PRES   REMARKS
CEDAR RAPIDS   CLOUDY    42  33  70 S16       29.82R
CHARLES CITY * CLOUDY    37  34  87 SE9       29.80S WCI  31
CLINTON *      PTCLDY    39  32  75 S10       29.92R WCI  32
DECORAH *      CLEAR     36  32  87 SE7       29.81S WCI  30
DUBUQUE        MOCLDY    38  32  79 S14       29.87R WCI  30
MONTICELLO *   CLEAR     39  34  81 SE8       29.86R WCI  34
OELWEIN *      MOCLDY    39  32  75 S14       29.82S WCI  31
WATERLOO       MOCLDY    41  32  70 SE13      29.80R
$$

IAZ064-065-067-068-078-260200-
   EAST CENTRAL IOWA

CITY           SKY/WX    TMP DP  RH WIND       PRES   REMARKS
DAVENPORT      MOCLDY    42  31  64 S18       29.89R
IOWA CITY      CLOUDY    39  32  76 SE8       29.87R WCI  33
MT. PLEASANT * PTCLDY    41  32  70 SE12      29.85R
MUSCATINE *    CLEAR     43  34  70 SE8       29.87R
QUAD CITIES    PTCLDY    42  32  67 SE10      29.89R
$$

IAZ062-063-075>077-085>089-095>099-260200-
   SOUTHEAST IOWA

CITY           SKY/WX    TMP DP  RH WIND       PRES   REMARKS
BURLINGTON     PTCLDY    42  32  67 SE10      29.85F
FAIRFIELD *    PTCLDY    41  32  70 SE12      29.82S
FORT MADISON * CLEAR     45  36  70 SE14      29.85F
KEOKUK *       CLEAR     43  32  65 SE10      29.84S
OSKALOOSA *      N/A     39  32  75 SE13      29.80S WCI  32
CENTERVILLE *  CLEAR     41  32  70 SE8       29.79R
OTTUMWA        CLOUDY    42  30  62 SE9       29.80R
WASHINGTON *   CLEAR     39  36  87 SE10      29.83F WCI  32
$$

ABBREVIATIONS USED IN REMARKS
   TC - TEMPERATURES IN CELSIUS
  WCI - WIND CHILL INDEX
   HX - HEAT INDEX
  VSB - VISIBILITY
$$



USA.gov is the U.S. government's official web portal to all federal, state and local government web resources and services.